When you browse on this site, cookies collect data to enhance your experience and personalize the content and advertising you see.
Visit our Privacy Policy to learn more. By continuing to use the site, you agree to this use of cookies and data.

Meteo pe oră la Dzierzanow

Astăzi, 19 Septembrie, Sâmbătă

Timp Temperatura Precipitaţii Vânt Presiune Umiditate
00:00 +10°C° 0 mm 0 m/s 757 mmHg 59%
01:00 +11°C° 0 mm 1 m/s 758 mmHg 61%
02:00 +11°C° 0 mm 1 m/s 757 mmHg 62%
03:00 +9°C° 0 mm 0 m/s 757 mmHg 63%
04:00 +9°C° 0 mm 0 m/s 757 mmHg 65%
05:00 +10°C° 0 mm 0 m/s 757 mmHg 63%
06:00 +11°C° 0 mm 0 m/s 757 mmHg 62%
07:00 +11°C° 0 mm 0 m/s 757 mmHg 61%
08:00 +14°C° 0 mm 1 m/s 756 mmHg 55%
09:00 +16°C° 0 mm 1 m/s 756 mmHg 49%
10:00 +18°C° 0 mm 1 m/s 756 mmHg 43%
11:00 +19°C° 0 mm 1 m/s 756 mmHg 40%
12:00 +20°C° 0 mm 1 m/s 756 mmHg 37%
13:00 +21°C° 0 mm 1 m/s 755 mmHg 34%
14:00 +21°C° 0 mm 1 m/s 755 mmHg 35%
15:00 +21°C° 0 mm 1 m/s 755 mmHg 37%
16:00 +20°C° 0 mm 1 m/s 754 mmHg 39%
17:00 +18°C° 0 mm 2 m/s 754 mmHg 42%
18:00 +16°C° 0 mm 2 m/s 754 mmHg 45%
19:00 +15°C° 0 mm 2 m/s 754 mmHg 48%
20:00 +14°C° 0 mm 2 m/s 754 mmHg 49%
21:00 +14°C° 0 mm 2 m/s 754 mmHg 50%
22:00 +13°C° 0 mm 2 m/s 754 mmHg 51%
23:00 +13°C° 0 mm 2 m/s 754 mmHg 52%

Mâine, 20 Septembrie, Duminică

Timp Temperatura Precipitaţii Vânt Presiune Umiditate
00:00 +13°C° 0 mm 2 m/s 754 mmHg 52%
01:00 +13°C° 0 mm 2 m/s 754 mmHg 53%
02:00 +12°C° 0 mm 2 m/s 754 mmHg 53%
03:00 +12°C° 0 mm 2 m/s 754 mmHg 54%
04:00 +12°C° 0 mm 2 m/s 754 mmHg 54%
05:00 +12°C° 0 mm 2 m/s 754 mmHg 55%
06:00 +11°C° 0 mm 3 m/s 754 mmHg 55%
07:00 +12°C° 0 mm 3 m/s 754 mmHg 56%
08:00 +13°C° 0 mm 3 m/s 754 mmHg 52%
09:00 +16°C° 0 mm 3 m/s 754 mmHg 48%
10:00 +18°C° 0 mm 4 m/s 753 mmHg 45%
11:00 +18°C° 0 mm 4 m/s 753 mmHg 43%
12:00 +19°C° 0 mm 4 m/s 753 mmHg 41%
13:00 +20°C° 0 mm 4 m/s 753 mmHg 39%
14:00 +20°C° 0 mm 4 m/s 752 mmHg 42%
15:00 +20°C° 0 mm 3 m/s 752 mmHg 44%
16:00 +19°C° 0 mm 3 m/s 752 mmHg 47%
17:00 +18°C° 0 mm 3 m/s 752 mmHg 49%
18:00 +17°C° 0 mm 3 m/s 752 mmHg 52%
19:00 +14°C° 0 mm 3 m/s 752 mmHg 55%
20:00 +14°C° 0 mm 3 m/s 752 mmHg 57%
21:00 +13°C° 0 mm 3 m/s 752 mmHg 59%
22:00 +13°C° 0 mm 3 m/s 752 mmHg 61%
23:00 +13°C° 0 mm 3 m/s 752 mmHg 65%

Poimâine, 21 Septembrie, Luni

Timp Temperatura Precipitaţii Vânt Presiune Umiditate
00:00 +13°C° 0 mm 2 m/s 752 mmHg 69%
01:00 +13°C° 0 mm 2 m/s 751 mmHg 74%
02:00 +13°C° 0 mm 2 m/s 751 mmHg 76%
03:00 +12°C° 0 mm 2 m/s 751 mmHg 79%
04:00 +12°C° 0 mm 2 m/s 751 mmHg 82%
05:00 +12°C° 0 mm 2 m/s 751 mmHg 81%
06:00 +13°C° 0 mm 2 m/s 751 mmHg 79%
07:00 +14°C° 0 mm 2 m/s 751 mmHg 77%
08:00 +16°C° 0 mm 1 m/s 751 mmHg 69%
09:00 +19°C° 0 mm 1 m/s 751 mmHg 62%
10:00 +21°C° 0 mm 1 m/s 751 mmHg 54%
11:00 +22°C° 0 mm 1 m/s 751 mmHg 49%
12:00 +23°C° 0 mm 1 m/s 751 mmHg 44%
13:00 +25°C° 0 mm 1 m/s 750 mmHg 39%
14:00 +25°C° 0 mm 1 m/s 750 mmHg 40%
15:00 +25°C° 0 mm 1 m/s 750 mmHg 41%
16:00 +25°C° 0 mm 1 m/s 750 mmHg 42%
17:00 +23°C° 0 mm 1 m/s 750 mmHg 45%
18:00 +22°C° 0 mm 1 m/s 750 mmHg 49%
19:00 +20°C° 0 mm 1 m/s 750 mmHg 52%
20:00 +18°C° 0 mm 2 m/s 750 mmHg 54%
21:00 +18°C° 0 mm 2 m/s 750 mmHg 56%
22:00 +17°C° 0 mm 2 m/s 750 mmHg 57%
23:00 +17°C° 0 mm 2 m/s 749 mmHg 58%

22 Septembrie, Marţi

Timp Temperatura Precipitaţii Vânt Presiune Umiditate
00:00 +17°C° 0 mm 3 m/s 749 mmHg 59%
01:00 +17°C° 0 mm 3 m/s 749 mmHg 59%
02:00 +16°C° 0 mm 3 m/s 749 mmHg 60%
03:00 +16°C° 0 mm 3 m/s 749 mmHg 60%
04:00 +16°C° 0 mm 3 m/s 748 mmHg 61%
05:00 +16°C° 0 mm 3 m/s 748 mmHg 60%
06:00 +17°C° 0 mm 3 m/s 748 mmHg 60%
07:00 +17°C° 0 mm 3 m/s 748 mmHg 60%
08:00 +20°C° 0 mm 4 m/s 748 mmHg 53%
09:00 +22°C° 0 mm 4 m/s 748 mmHg 46%
10:00 +25°C° 0 mm 5 m/s 748 mmHg 39%
11:00 +26°C° 0 mm 5 m/s 748 mmHg 37%
12:00 +27°C° 0 mm 6 m/s 747 mmHg 34%
13:00 +28°C° 0 mm 6 m/s 747 mmHg 32%
14:00 +28°C° 0 mm 5 m/s 746 mmHg 35%
15:00 +27°C° 0 mm 4 m/s 746 mmHg 38%
16:00 +27°C° 0 mm 4 m/s 745 mmHg 41%
17:00 +25°C° 0 mm 3 m/s 745 mmHg 45%
18:00 +22°C° 0 mm 3 m/s 745 mmHg 49%
19:00 +20°C° 0 mm 3 m/s 745 mmHg 53%
20:00 +20°C° 0 mm 3 m/s 745 mmHg 53%
21:00 +20°C° 0 mm 3 m/s 745 mmHg 53%
22:00 +19°C° 0 mm 3 m/s 745 mmHg 53%
23:00 +19°C° 0 mm 3 m/s 744 mmHg 53%

23 Septembrie, Miercuri

Timp Temperatura Precipitaţii Vânt Presiune Umiditate
00:00 +19°C° 0 mm 4 m/s 744 mmHg 52%
01:00 +18°C° 0 mm 4 m/s 744 mmHg 52%
02:00 +18°C° 0 mm 4 m/s 743 mmHg 52%
03:00 +18°C° 0 mm 4 m/s 743 mmHg 52%
04:00 +18°C° 0 mm 4 m/s 743 mmHg 52%
05:00 +18°C° 0 mm 4 m/s 743 mmHg 52%
06:00 +19°C° 0 mm 4 m/s 742 mmHg 52%
07:00 +19°C° 0 mm 4 m/s 742 mmHg 51%
08:00 +21°C° 0 mm 5 m/s 742 mmHg 50%
09:00 +22°C° 0 mm 6 m/s 742 mmHg 49%
10:00 +23°C° 0 mm 6 m/s 742 mmHg 49%
11:00 +24°C° 0 mm 6 m/s 742 mmHg 49%
12:00 +26°C° 0 mm 6 m/s 741 mmHg 50%
13:00 +26°C° 0 mm 5 m/s 741 mmHg 51%
14:00 +26°C° 0 mm 4 m/s 741 mmHg 52%
15:00 +26°C° 0 mm 4 m/s 741 mmHg 53%
16:00 +26°C° 0 mm 3 m/s 741 mmHg 54%
17:00 +24°C° 0 mm 2 m/s 741 mmHg 60%
18:00 +21°C° 0 mm 2 m/s 741 mmHg 65%
19:00 +20°C° 0 mm 2 m/s 741 mmHg 70%
20:00 +20°C° 0 mm 2 m/s 741 mmHg 72%
21:00 +19°C° 0 mm 2 m/s 741 mmHg 73%
22:00 +19°C° 0 mm 2 m/s 741 mmHg 75%
23:00 +19°C° 0 mm 2 m/s 741 mmHg 76%

24 Septembrie, Joi

Timp Temperatura Precipitaţii Vânt Presiune Umiditate
00:00 +18°C° 0 mm 2 m/s 741 mmHg 76%
01:00 +18°C° 0 mm 2 m/s 741 mmHg 77%
02:00 +18°C° 0 mm 2 m/s 741 mmHg 79%
03:00 +18°C° 0 mm 2 m/s 741 mmHg 81%
04:00 +17°C° 0 mm 2 m/s 741 mmHg 83%
05:00 +17°C° 0 mm 2 m/s 741 mmHg 82%
06:00 +18°C° 0 mm 2 m/s 741 mmHg 82%
07:00 +18°C° 0 mm 2 m/s 742 mmHg 81%
08:00 +19°C° 0 mm 2 m/s 742 mmHg 76%
09:00 +20°C° 0 mm 2 m/s 742 mmHg 71%
10:00 +21°C° 0 mm 2 m/s 742 mmHg 66%
11:00 +23°C° 0 mm 2 m/s 742 mmHg 63%
12:00 +23°C° 0 mm 2 m/s 742 mmHg 59%
13:00 +24°C° 0 mm 1 m/s 742 mmHg 56%
14:00 +24°C° 0 mm 1 m/s 742 mmHg 58%
15:00 +24°C° 0 mm 1 m/s 742 mmHg 59%
16:00 +23°C° 0 mm 1 m/s 742 mmHg 61%
17:00 +22°C° 0 mm 1 m/s 741 mmHg 66%
18:00 +21°C° 0 mm 1 m/s 741 mmHg 71%
19:00 +19°C° 0 mm 1 m/s 741 mmHg 76%
20:00 +19°C° 0 mm 1 m/s 741 mmHg 78%
21:00 +19°C° 0 mm 1 m/s 741 mmHg 80%
22:00 +17°C° 0 mm 2 m/s 741 mmHg 82%
23:00 +17°C° 0 mm 2 m/s 741 mmHg 83%
Arată mai mult